Retour au catalogue

STARLINK-38134

ActifCommunicationsSSO
NORAD 100123·PAYLOAD·🇺🇸 United States

Lancé Jul 21, 2026 depuis Vandenberg Space Force Base

Loading…

Prochains Passages (prochaines 24 heures)

TLE

FraisSource: Space-Track

Époque: Sep 14, 2026, 00:59 UTC

1 A0123U 26166Y   26257.04138723  .00001279  00000-0  94440-5 0  9992
2 A0123  97.2844 275.1793 0001675  85.2384 274.9072 15.75187425  8593

Suivez STARLINK-38134 en temps réel avec AllMySat

Download on the App Store